Location: Newark
(58.8333°N, 23.5833°E)
Time: 03:45:19
(UTC+00:00)

Tiros 1 despin weight - Pass Details

Date: 24 November 2019
Orbit: 594 x 642 km, 48.2° (Epoch: 06 December)

Event Time Altitude Azimuth Distance (km) Brightness Sun altitude
Rises 10:37:54 0° 216° (SW) 2,824 ? 10.5°
Reaches altitude 10° 10:41:00 10° 193° (SSW) 1,924 ? 10.4°
Maximum altitude 10:43:30 15° 159° (SSE) 1,627 ? 10.4°
Drops below altitude 10° 10:46:00 10° 124° (SE) 1,932 ? 10.3°
Sets 10:49:08 0° 101° (E) 2,842 ? 10.3°
